RH
13 13 13 13 14 14 14 15 15 15 14 14 14 14 14 15 16 16 15 13 11 11 10 10 10 10 10 10 9 9 9 8 8 9 10 10 10 10 10 9 9 9 9 9 9 8 8 7 8 8 8 8 8 9 10 10 12 11 13 13 16 18 19 53 92 101 100 102 100 94 96 101 102 80 64 93 99 77 72 67 69 73 58 41 32 20 14 19
14 13 13 13 13 13 13 13 13 13 14 14 14 14 14 14 14 14 15 15 14 12 11 10 10 10 10 10 10 9 9 9 8 8 9 10 10 10 10 9 9 9 9 9 9 9 8 8 8 8 8 8 8 8 9 9 10 10 12 12 15 17 17 46 86 100 99 101 100 99 99 99 103 80 61 93 102 82 82 77 73 79 75 59 44 31 26 28
16 15 15 14 14 14 13 13 13 13 13 13 13 13 14 14 14 14 14 14 14 14 14 12 11 10 10 10 9 9 9 9 9 8 8 9 9 10 9 10 9 9 9 9 10 9 9 8 8 8 8 8 8 7 8 8 9 9 10 11 12 17 17 34 73 97 100 102 100 100 101 99 104 81 64 94 106 94 88 79 74 79 85 79 62 43 40 46
17 16 16 15 15 14 14 14 14 14 13 13 13 13 13 14 14 14 14 14 13 13 14 14 13 11 10 10 9 9 9 9 9 8 8 8 9 9 9 10 10 9 9 9 10 9 9 8 8 7 7 8 8 7 7 7 8 8 9 11 11 14 17 23 54 88 99 101 99 101 99 98 105 86 70 92 103 100 91 72 67 78 88 88 79 61 55 61
20 19 18 17 16 16 15 15 15 15 14 14 14 14 13 13 13 13 14 14 14 14 13 13 13 13 12 11 10 9 9 9 9 9 8 8 8 9 9 9 10 10 9 9 10 9 9 9 8 7 7 8 8 7 7 7 7 8 8 9 10 11 16 18 38 74 93 100 101 96 96 101 104 87 78 97 101 100 99 78 66 79 91 90 86 83 80 80
22 22 21 19 18 17 17 16 16 16 15 15 15 15 15 14 14 13 13 13 14 14 14 13 12 12 13 12 12 10 9 9 9 9 9 9 9 9 9 9 10 10 9 10 10 9 9 9 9 7 7 7 8 8 7 8 7 7 8 8 9 9 14 16 29 65 85 97 106 94 94 102 98 89 91 102 99 101 104 85 75 83 93 90 83 92 99 90
22 22 22 21 20 19 18 17 16 15 15 15 15 15 16 16 16 15 13 12 12 13 14 15 13 12 12 13 13 12 10 9 9 9 9 9 9 9 9 8 9 9 9 10 9 9 9 9 9 7 8 7 8 9 8 9 7 7 8 7 9 8 13 14 23 61 80 89 107 97 92 98 93 94 99 100 99 105 102 87 84 84 90 88 74 90 103 84
21 22 22 22 21 21 20 18 17 16 15 15 15 15 15 15 16 16 16 14 12 12 13 14 14 14 12 12 12 13 12 10 9 9 9 9 9 9 9 9 8 8 9 9 9 9 9 9 9 8 8 8 8 8 8 8 8 8 8 7 9 8 12 14 17 57 86 90 105 101 89 94 95 98 102 100 100 102 100 97 89 78 89 87 68 89 106 83
21 21 21 22 22 22 22 21 20 18 17 16 15 15 14 14 14 16 16 16 15 12 12 12 13 14 14 13 11 12 13 12 11 9 9 9 9 10 9 9 8 8 9 9 9 9 10 9 9 8 8 8 8 8 8 9 8 8 8 8 9 8 10 13 13 51 95 94 98 104 93 95 99 98 100 99 102 100 99 103 87 79 97 84 66 91 108 86
20 20 21 22 23 23 22 22 21 21 20 19 17 16 15 15 14 14 15 16 16 15 13 12 12 13 14 14 13 11 11 12 12 10 10 9 9 9 9 10 8 8 8 8 9 8 9 9 8 8 8 9 8 8 8 8 9 8 9 8 9 9 8 12 10 40 93 96 92 104 96 98 99 93 97 98 100 99 101 101 81 85 103 80 70 96 108 89
20 20 21 22 23 23 21 21 21 21 21 19 19 18 17 16 15 14 14 14 15 15 15 13 12 12 12 14 14 13 11 11 12 12 11 10 9 9 9 10 9 9 8 8 8 8 9 9 9 9 9 10 9 8 8 8 9 9 10 9 9 10 7 13 15 31 82 97 89 102 99 97 101 94 98 99 92 91 101 100 79 88 96 75 81 101 107 91
18 19 21 22 22 21 20 20 20 20 20 18 18 18 17 16 16 15 14 14 14 14 15 14 13 11 12 12 13 14 13 11 11 12 13 11 10 9 9 9 9 9 8 8 7 7 8 8 9 9 9 10 9 9 8 8 9 9 9 9 9 11 8 14 18 26 76 101 85 93 102 97 101 100 100 100 93 93 102 97 82 87 81 70 91 103 104 93
17 19 21 22 21 20 20 20 19 19 18 18 17 16 17 16 16 16 15 15 14 13 14 14 14 12 11 12 12 14 15 14 11 10 12 12 11 9 9 8 9 9 8 7 7 8 8 8 9 9 10 10 10 9 8 8 8 9 10 9 10 12 11 12 16 29 71 103 87 82 99 101 99 100 101 102 99 99 102 98 88 78 66 75 99 103 103 92
17 20 21 20 19 19 19 19 18 18 17 17 17 16 17 16 16 16 15 16 15 14 13 13 14 14 12 11 12 13 13 15 13 11 10 11 12 11 9 8 8 9 8 8 7 8 7 8 9 9 10 9 10 10 9 9 8 9 9 9 11 11 15 15 20 38 59 87 94 82 92 103 99 100 101 100 99 100 101 101 91 68 60 84 101 101 104 90
19 20 19 19 19 19 18 18 17 17 17 17 17 17 17 17 17 16 16 16 16 15 14 13 13 14 14 12 11 12 12 14 14 13 10 10 12 12 11 9 8 8 8 8 8 8 7 8 9 8 9 9 10 10 9 10 7 9 8 9 11 8 19 22 24 44 48 67 97 90 93 103 99 101 101 100 100 99 101 105 97 73 67 90 101 99 103 89
19 19 19 20 20 19 18 18 18 18 18 18 18 17 17 17 17 17 16 16 16 16 15 14 13 13 14 13 12 11 11 12 13 15 13 10 10 12 13 11 10 8 8 9 8 9 8 8 8 8 9 8 10 10 9 11 8 9 8 8 11 7 17 25 40 69 60 66 101 101 100 105 100 102 100 101 102 96 97 102 103 89 75 88 100 95 95 86
19 20 21 22 21 19 18 18 19 19 18 18 18 17 17 17 17 17 17 16 16 16 16 15 14 13 14 14 12 11 11 11 12 15 15 12 10 10 13 12 11 9 8 9 9 9 9 8 9 7 9 8 9 10 9 11 10 9 8 8 10 9 11 17 47 91 86 80 103 104 102 100 98 104 100 100 101 96 97 99 106 99 75 82 101 98 92 80
21 22 23 22 21 19 20 19 19 19 18 17 17 17 17 17 17 17 17 17 17 16 16 16 15 14 14 14 14 12 11 12 12 14 15 15 12 10 11 12 12 11 9 9 9 9 9 9 9 8 8 8 8 10 10 11 11 9 8 8 8 9 12 10 28 66 85 94 100 98 103 95 88 99 100 101 100 99 101 98 105 102 82 87 101 101 95 75
22 23 22 21 21 21 20 20 19 18 17 17 17 16 16 16 16 17 17 17 17 17 17 16 16 15 15 15 15 14 12 13 12 13 14 15 14 11 10 11 13 13 12 11 9 9 10 9 9 9 9 9 9 10 10 10 10 9 7 8 8 8 10 10 12 24 53 95 104 93 102 98 88 92 95 103 102 99 102 98 101 102 95 98 99 102 100 78
22 22 22 22 22 22 21 19 18 17 17 16 15 15 14 14 15 15 16 17 18 18 18 17 17 16 16 16 16 15 13 13 12 12 13 14 15 13 10 10 12 14 14 13 11 10 9 10 10 10 9 9 10 9 9 10 9 10 8 7 8 9 9 9 11 9 20 62 78 71 90 101 97 92 90 101 105 100 101 100 100 101 100 101 98 102 103 84
22 22 24 25 24 22 20 19 17 16 15 14 13 12 12 11 12 13 14 15 17 18 19 19 19 18 17 17 17 16 14 13 13 12 13 13 14 14 12 10 10 13 15 14 13 10 9 10 10 11 10 9 9 8 8 9 9 9 8 8 7 7 10 8 11 13 10 27 35 37 70 100 103 96 92 99 107 103 100 100 101 100 100 101 100 99 97 88
23 25 27 26 24 22 20 18 16 14 12 11 10 10 10 10 10 11 12 13 15 16 19 19 20 20 19 19 18 17 15 14 13 13 13 13 14 15 14 12 11 11 14 15 14 12 11 11 11 11 10 9 9 8 8 8 9 10 8 10 8 6 9 8 12 17 15 22 25 22 52 93 104 98 98 102 107 106 102 100 100 100 100 101 102 99 92 86
26 28 29 27 24 21 19 16 13 11 10 10 11 10 10 11 10 11 11 12 13 14 16 18 19 20 20 20 19 18 17 15 15 14 13 13 14 15 15 14 12 11 13 14 15 14 14 13 11 10 10 9 9 8 8 8 8 10 10 9 9 8 8 8 11 17 19 23 26 22 41 86 104 96 97 101 103 104 101 100 100 100 101 100 102 103 96 89
29 30 29 25 22 20 16 13 11 11 12 13 14 13 13 13 12 13 12 12 13 13 14 16 17 19 20 20 19 19 18 16 16 15 14 14 13 15 16 16 14 12 11 14 15 16 16 14 11 10 10 10 10 9 8 9 8 8 10 10 9 9 8 8 9 13 19 22 23 21 35 78 100 93 97 100 100 102 99 100 101 99 101 100 98 102 103 96
31 31 28 23 20 16 12 12 13 14 16 17 17 17 17 17 16 15 15 15 14 14 14 15 16 17 18 19 20 20 19 18 17 16 16 15 14 15 16 16 15 13 12 13 15 17 17 14 11 9 10 10 10 10 8 8 9 8 9 10 10 10 8 8 8 10 17 20 23 24 36 75 96 92 98 99 99 104 101 100 102 100 101 100 95 97 102 100
32 30 26 22 17 13 12 14 17 18 20 21 21 21 21 22 22 20 19 19 18 17 16 15 16 16 17 18 19 20 20 19 17 17 17 15 15 15 16 17 16 15 13 12 14 17 17 15 12 10 9 10 9 10 10 9 9 8 9 10 10 11 9 8 8 10 14 16 21 21 27 63 91 92 93 92 90 98 103 102 102 101 100 102 101 97 99 100
33 29 24 19 14 13 16 18 20 22 23 25 25 26 26 27 27 26 26 25 24 22 20 18 17 17 18 18 19 20 21 21 19 18 17 17 16 15 16 18 18 18 15 13 14 16 17 15 13 11 9 10 10 10 10 10 10 9 9 9 10 11 11 9 8 9 12 13 17 18 14 34 66 80 85 93 97 97 102 103 99 100 100 104 107 98 97 98
34 29 22 16 13 16 19 21 23 25 26 28 29 30 30 31 31 30 30 30 28 27 25 23 21 20 20 19 21 21 21 22 20 19 18 18 17 16 17 19 19 20 17 16 16 15 16 15 14 13 10 10 11 11 11 10 10 10 9 9 10 11 10 10 9 8 10 12 15 19 16 15 34 53 62 84 105 101 100 105 100 102 103 103 107 99 91 93
35 29 20 15 16 19 21 22 25 27 29 30 31 33 35 35 34 33 34 35 34 32 30 29 26 24 23 22 23 23 23 23 22 21 20 19 19 18 18 19 20 21 19 20 20 15 14 15 15 14 12 11 11 11 11 11 11 11 9 8 8 10 10 9 10 8 7 11 14 17 19 14 18 31 35 55 93 99 94 101 100 103 107 101 102 101 89 86
36 29 19 16 19 21 23 25 27 29 30 32 34 38 43 46 46 46 48 49 47 41 37 34 32 30 28 26 25 25 25 25 23 23 22 21 22 20 19 19 20 22 22 23 22 16 12 13 15 15 14 14 11 10 11 11 11 10 9 9 8 9 10 10 10 9 7 9 14 16 19 18 15 22 22 29 66 89 89 93 93 96 106 103 99 102 96 87
38 29 19 18 21 23 25 28 29 32 35 40 45 50 55 59 61 62 63 64 60 54 48 43 39 35 31 31 31 31 30 28 25 24 24 23 23 23 22 22 22 25 27 27 24 17 13 14 15 16 17 15 12 11 11 12 11 9 8 8 8 8 9 11 9 9 9 8 12 15 18 21 16 20 24 19 34 60 70 78 83 87 98 104 101 101 102 96
41 31 20 21 23 25 28 32 34 39 46 53 57 61 64 66 70 72 73 74 72 68 62 55 50 42 35 33 34 36 37 34 29 25 25 25 24 26 26 25 26 29 32 31 25 19 16 15 16 16 17 16 14 12 11 12 10 9 9 8 8 8 7 10 10 9 10 8 9 13 17 25 24 19 22 21 20 28 39 54 69 81 92 102 103 100 101 101
44 32 22 23 25 27 32 36 41 49 58 63 66 69 72 76 81 81 81 79 77 75 71 65 60 52 43 37 34 38 43 43 38 31 27 25 25 26 26 28 32 37 40 33 24 21 20 18 17 17 17 16 15 14 12 12 10 9 10 8 9 9 8 9 10 10 11 9 8 10 14 25 32 28 23 25 29 24 23 38 59 77 93 103 105 103 100 99
46 34 24 25 27 31 37 42 50 60 67 71 73 77 80 83 83 78 74 72 70 69 67 64 60 54 49 42 36 36 43 51 51 42 34 31 31 31 31 34 42 49 49 39 28 24 23 22 19 17 17 16 15 16 14 12 11 10 11 10 10 10 10 9 10 11 12 10 9 9 12 17 29 44 40 33 44 45 28 29 49 71 91 101 103 105 106 103
49 36 25 26 29 35 44 50 58 67 70 73 76 77 76 73 68 62 59 57 56 56 55 55 54 50 48 44 40 35 38 50 59 56 46 38 38 41 42 47 53 56 52 43 36 31 28 26 23 18 16 16 16 16 16 13 10 11 10 10 10 10 11 10 9 11 12 11 9 8 12 13 18 43 55 45 49 57 44 29 35 55 77 89 91 99 107 102
51 38 27 27 31 39 49 57 65 69 70 72 73 71 66 61 56 52 48 45 44 43 43 44 44 44 44 43 41 38 35 41 54 63 59 48 45 48 52 56 60 60 53 44 41 38 33 30 27 23 19 17 17 16 16 14 11 10 10 10 10 10 12 12 9 10 10 10 11 8 10 13 12 25 49 58 56 57 51 31 22 36 57 68 72 82 93 87
54 40 28 28 32 42 53 62 68 70 69 70 68 64 60 56 51 46 41 38 35 34 33 34 35 37 38 39 39 39 38 35 41 55 61 57 54 55 59 62 63 62 55 47 45 42 38 34 30 27 23 19 18 16 16 16 12 11 10 10 11 10 12 13 11 10 9 9 10 10 9 11 13 14 27 49 62 65 58 36 21 27 41 49 50 58 65 62
56 41 30 29 34 46 57 64 69 68 67 66 64 62 58 51 45 40 36 33 30 28 28 28 29 30 32 34 35 37 38 36 34 40 52 60 60 58 64 69 69 66 59 53 51 46 41 39 34 31 27 22 19 17 16 16 14 12 10 10 11 11 11 13 13 11 10 9 9 12 11 8 12 14 14 26 44 58 61 45 28 26 32 35 36 41 42 40
58 43 31 29 36 50 60 66 69 67 66 65 64 61 54 46 42 39 35 32 29 27 25 25 26 27 28 29 30 33 36 37 34 33 41 55 62 62 67 72 71 68 63 59 57 52 46 41 37 34 32 26 21 18 17 16 16 14 12 10 10 11 11 11 13 13 10 10 9 11 14 10 9 12 13 17 24 38 58 60 43 27 25 26 27 33 33 33
59 45 32 30 38 54 65 70 72 70 69 67 63 56 49 45 42 39 36 31 26 24 23 23 24 24 26 26 27 30 32 35 36 33 33 42 57 66 70 74 71 65 63 64 62 58 52 46 42 39 34 30 24 19 18 17 17 16 14 12 10 10 11 10 12 13 11 10 9 10 14 13 11 9 11 15 17 23 47 71 66 41 27 22 21 25 26 30
60 46 33 30 39 57 69 73 75 76 73 67 59 52 49 46 41 39 39 31 24 21 19 20 21 22 24 25 26 27 29 32 34 35 32 32 44 61 71 74 71 65 63 65 63 62 58 53 48 43 37 34 27 21 18 17 17 16 15 14 12 10 11 11 11 12 12 11 10 10 14 15 14 11 10 12 16 15 25 59 82 69 45 29 22 23 24 24
61 47 34 30 39 59 72 75 77 79 75 66 57 53 51 46 40 40 42 33 22 19 18 17 19 19 21 23 25 26 27 29 32 34 35 33 35 47 62 71 70 66 64 64 62 62 60 57 53 48 41 36 30 24 20 18 17 17 16 16 14 11 11 12 11 11 13 13 12 11 13 16 15 13 11 10 13 14 11 33 69 79 67 50 31 23 24 24
62 47 34 30 39 58 71 75 78 78 73 66 60 55 51 48 43 43 44 35 23 20 18 18 19 19 19 21 23 26 26 27 30 33 36 38 35 35 47 61 66 65 65 65 63 61 60 59 55 50 45 38 32 27 23 20 19 18 17 16 16 14 11 11 12 13 14 14 15 14 12 15 17 17 16 11 11 14 11 16 37 56 70 77 65 42 27 24
63 48 34 30 40 57 68 75 79 78 73 68 63 57 53 51 49 47 44 35 26 23 21 19 20 19 19 19 20 24 27 27 28 31 36 41 40 33 35 47 56 61 65 67 65 63 64 63 59 54 48 41 35 30 26 23 21 20 17 16 17 16 13 12 11 13 15 15 17 18 15 14 17 18 19 16 12 12 12 13 18 29 49 77 95 85 56 31
63 48 34 31 41 59 70 76 79 80 76 69 62 58 57 56 54 52 47 34 26 27 25 21 21 20 19 20 20 21 25 27 28 30 34 39 42 38 33 37 45 52 60 64 64 64 64 64 61 58 53 46 39 33 29 25 22 20 18 16 17 17 15 13 11 12 14 15 18 21 20 17 16 17 19 19 17 13 13 13 14 19 29 52 87 106 91 57
63 49 35 31 43 62 74 78 80 84 80 71 64 61 60 60 58 56 51 36 26 28 29 25 23 22 21 21 20 20 22 25 28 30 32 36 42 44 39 35 37 43 51 58 62 62 60 59 58 57 54 49 43 37 32 28 24 21 18 16 16 17 16 14 12 12 13 15 18 22 23 21 19 19 20 22 21 17 14 13 14 16 17 29 65 99 105 87
64 50 35 31 43 64 77 78 83 89 81 71 67 65 62 62 59 59 57 43 29 27 30 30 27 25 24 22 21 21 21 23 26 29 32 34 39 47 48 42 37 37 42 49 55 58 56 56 56 55 52 49 45 40 35 33 29 24 21 19 17 17 17 16 14 13 13 14 17 21 24 24 23 21 20 22 25 22 18 15 14 17 13 16 51 90 103 102
66 50 36 31 42 64 77 77 85 92 81 69 69 66 63 62 59 60 61 50 35 28 29 32 31 28 26 24 23 22 21 22 23 26 31 34 36 44 52 51 43 39 40 43 46 49 52 54 53 53 53 50 46 44 40 37 34 28 24 22 20 18 18 18 16 14 14 15 17 20 23 25 24 23 22 22 27 28 25 20 15 17 15 11 35 79 102 105
67 52 37 30 40 63 75 77 86 92 80 70 69 65 63 62 59 60 63 54 40 31 29 31 33 32 29 26 24 24 22 21 22 23 28 33 35 40 49 54 49 44 44 47 45 42 43 48 48 50 54 52 47 48 47 44 41 36 30 26 22 20 19 19 18 16 15 16 18 20 24 26 25 25 24 24 27 30 31 28 21 17 18 13 19 51 85 103
69 55 38 29 38 60 73 77 87 91 80 72 70 64 62 62 59 59 63 56 43 34 32 31 32 33 32 28 25 24 23 22 22 22 24 29 35 38 46 56 59 55 54 58 56 45 40 42 41 44 54 55 49 49 51 51 50 45 39 32 26 22 20 19 19 17 16 16 17 20 24 26 27 26 27 26 27 32 33 33 31 22 18 18 16 25 49 78
71 58 41 30 36 55 70 78 87 89 80 75 74 67 63 63 60 59 62 59 46 36 33 32 32 33 33 30 26 23 23 23 22 22 23 26 32 37 43 54 65 71 73 77 77 63 50 47 41 40 53 60 56 54 54 53 52 51 48 41 33 27 23 21 20 18 18 16 16 20 23 26 27 26 28 28 26 30 34 35 35 30 21 18 18 22 29 43
72 61 44 31 35 51 68 80 88 87 80 78 78 72 66 66 64 61 63 60 49 38 34 32 33 34 32 30 29 26 24 24 23 23 22 23 28 34 39 46 59 74 83 91 97 88 72 64 56 47 51 61 64 63 61 58 56 57 55 45 38 33 26 23 21 19 19 18 16 18 21 24 26 24 25 28 27 28 31 33 35 33 27 21 19 23 29 31
Wind_Speed
18 18 18 19 19 19 20 20 20 21 22 23 24 26 28 30 31 31 32 34 36 39 41 43 45 46 47 48 49 49 49 49 49 50 49 50 50 50 50 51 51 50 49 49 49 48 47 46 45 44 43 42 42 41 40 38 36 33 31 28 26 22 18 16 16 14 14 14 14 14 13 13 14 12 8 8 5 2 8 11 12 15 18 21 22 23 25 27
19 20 21 21 21 22 22 22 22 23 23 24 24 25 27 29 31 33 34 35 36 37 39 41 44 46 47 48 49 50 50 51 51 50 50 51 51 51 51 52 52 51 51 50 50 49 49 48 47 46 44 43 43 42 41 39 37 36 33 31 29 25 21 19 19 17 14 14 15 15 17 17 16 13 8 8 8 1 7 8 9 11 15 19 20 21 23 25
20 21 22 23 23 24 24 25 25 25 26 26 26 27 27 28 29 32 34 36 37 38 39 40 42 44 47 48 49 50 51 52 52 51 52 52 52 53 53 53 53 52 51 51 51 51 51 50 49 48 47 45 44 43 42 40 39 38 35 33 31 27 24 21 21 19 16 15 16 16 18 19 17 15 10 8 9 3 5 7 6 7 10 16 18 19 21 24
22 22 23 24 24 25 25 25 26 27 28 28 29 30 30 30 31 31 32 34 37 39 40 41 42 43 44 47 49 51 51 52 53 53 54 53 53 54 54 53 53 53 52 52 53 53 53 52 51 51 49 47 45 44 43 42 40 39 37 36 34 30 27 24 22 21 18 17 18 18 18 18 17 16 11 8 11 7 4 6 7 7 8 14 16 17 20 22
24 24 25 26 26 26 27 27 27 28 29 30 31 32 33 33 34 34 34 34 35 37 40 43 44 43 44 45 48 50 52 53 53 54 55 54 54 55 54 54 54 54 54 53 53 54 55 54 53 52 51 48 47 45 43 43 41 40 39 37 35 32 29 26 24 23 21 18 18 20 18 16 16 14 10 10 15 12 6 7 9 8 8 13 15 15 19 21
26 26 27 28 28 29 30 30 30 30 30 31 32 33 35 36 37 37 37 37 36 37 39 42 44 46 46 45 46 48 51 53 53 54 55 55 56 56 55 55 55 55 55 54 55 56 56 55 55 54 52 50 48 46 44 43 42 41 40 38 36 34 31 29 26 24 23 19 17 19 19 16 15 12 12 16 19 16 8 7 9 8 9 13 14 13 17 22
27 28 29 30 31 32 33 33 33 33 33 33 33 34 35 37 38 40 41 40 39 39 40 42 43 45 47 48 47 48 49 51 53 54 55 56 57 57 56 56 57 57 56 56 56 56 57 56 56 55 53 51 49 47 45 43 43 42 40 39 37 35 33 31 28 25 24 21 18 19 20 18 16 15 17 19 20 16 9 9 9 8 9 11 13 13 16 21
29 30 31 32 33 34 36 37 38 37 37 37 37 37 37 38 39 41 43 44 43 42 42 43 44 44 46 48 50 50 49 49 52 54 56 57 57 58 58 58 59 57 57 57 57 57 57 57 57 56 55 52 51 49 47 44 43 43 41 40 38 37 35 33 30 27 26 24 20 18 21 20 20 20 18 17 19 16 11 11 10 8 9 10 13 12 14 19
32 33 34 35 36 38 39 40 41 41 41 41 41 41 41 41 41 42 44 46 47 47 46 45 45 45 46 48 50 52 51 50 52 53 55 57 58 58 58 59 60 59 58 58 58 58 58 58 59 58 56 54 52 50 48 46 44 44 42 40 39 38 37 35 32 30 29 27 23 20 22 22 23 23 18 16 17 16 14 13 11 9 8 10 11 11 12 17
35 36 37 38 40 41 41 42 43 44 44 45 45 46 46 46 46 46 46 47 48 50 50 49 47 47 47 48 49 51 53 53 53 52 54 56 58 59 59 60 61 60 60 60 60 60 59 59 59 58 56 55 54 52 50 48 46 44 44 41 40 39 38 36 34 32 32 30 27 24 24 24 24 23 19 18 18 17 16 14 12 9 9 9 10 10 10 15
38 39 41 42 43 44 44 44 44 46 47 47 48 49 50 50 51 51 50 50 50 51 53 53 51 49 49 49 49 50 52 55 55 54 54 55 58 59 60 61 62 62 62 61 61 60 59 58 58 57 56 56 55 55 53 50 48 46 45 43 40 40 39 37 36 34 33 32 30 27 26 26 24 22 20 20 20 19 18 16 14 10 9 8 9 9 9 13
41 43 44 46 47 48 48 48 48 49 50 51 52 52 53 54 54 54 54 53 53 53 54 55 55 53 51 51 50 50 52 55 57 58 57 56 58 60 61 62 63 63 64 63 61 59 58 58 58 58 57 57 57 56 54 52 50 48 46 44 41 41 41 39 38 36 33 32 33 30 27 27 24 22 22 22 22 21 21 19 15 11 10 7 8 8 7 11
44 46 48 49 51 51 51 51 52 52 54 55 55 56 56 56 57 57 57 57 56 56 55 56 57 57 55 53 52 52 53 56 59 60 60 59 58 59 62 63 63 64 65 64 61 59 59 58 58 58 58 59 58 57 56 54 53 50 48 46 44 43 42 41 40 38 36 34 34 31 29 27 25 24 23 22 22 23 23 21 16 12 10 7 9 7 6 9
47 49 51 53 54 54 54 54 55 56 57 58 58 59 59 59 59 59 59 59 59 59 58 58 59 59 58 56 55 56 56 57 59 60 61 60 59 59 60 62 63 64 65 64 62 61 60 59 58 59 59 60 59 59 58 56 54 53 50 48 47 46 42 41 41 40 39 36 34 32 31 29 26 25 23 23 23 23 24 21 16 13 10 9 10 7 5 7
51 53 55 56 57 57 58 58 58 59 59 60 61 61 62 62 62 61 61 61 61 61 61 60 60 61 61 60 60 59 58 58 58 58 59 61 61 60 59 61 63 64 64 63 62 62 61 60 61 61 61 60 60 60 60 58 56 55 53 51 50 48 44 43 42 40 40 39 36 34 34 33 30 26 22 23 24 23 22 19 16 15 12 12 12 10 7 6
55 57 59 59 60 61 61 61 61 62 63 63 64 64 64 64 64 64 64 63 62 63 63 63 62 62 63 64 63 62 60 58 56 58 60 61 62 62 60 60 61 63 63 62 63 62 62 62 63 62 62 61 61 61 61 59 58 57 57 55 52 51 48 47 42 38 39 40 39 37 36 36 36 29 23 23 23 21 19 19 18 17 15 13 13 13 11 7
60 61 62 63 64 64 65 65 65 65 66 66 67 67 66 66 66 66 66 65 64 64 64 64 64 65 65 67 66 64 61 59 58 59 60 62 63 63 63 62 61 62 62 62 63 63 64 64 63 62 62 62 62 62 62 61 61 60 60 58 55 53 52 51 46 39 38 39 39 38 37 38 39 33 25 24 23 20 19 20 18 18 16 15 14 14 13 9
64 65 66 67 68 68 68 68 69 69 69 69 69 69 68 67 67 67 66 66 66 66 66 66 66 67 67 68 68 67 65 63 62 62 61 63 64 65 65 65 63 61 60 62 63 64 65 65 64 63 63 63 62 62 64 65 65 63 62 61 59 57 55 55 52 47 42 37 38 38 36 37 40 35 27 24 23 21 21 20 18 18 17 17 16 15 14 11
67 68 70 70 71 71 71 72 72 72 72 71 71 70 69 68 67 67 66 66 67 67 67 67 67 68 69 70 71 70 69 67 66 65 64 65 66 66 67 66 65 62 59 60 62 64 65 65 64 64 64 64 64 65 66 67 66 65 63 62 61 60 58 57 55 53 49 43 41 41 37 36 38 36 31 26 23 23 22 20 19 20 20 19 19 17 15 12
70 72 72 72 72 73 74 74 75 75 74 73 72 71 69 68 66 66 65 65 66 67 68 68 68 69 70 72 73 73 72 71 69 68 67 66 66 67 68 68 67 64 61 60 61 63 66 65 65 66 68 69 69 68 68 67 67 66 64 63 62 61 59 57 55 55 55 52 48 46 42 38 37 37 35 30 26 24 24 23 23 24 23 22 21 18 15 13
73 75 75 75 75 76 77 77 77 76 75 74 72 70 67 65 64 63 63 64 64 66 68 69 69 70 71 73 75 75 75 74 73 71 69 67 67 67 68 68 68 67 64 62 61 63 65 65 67 70 72 71 70 69 68 67 68 67 66 64 64 64 61 58 56 54 54 53 50 49 47 42 38 37 35 33 30 26 26 27 28 28 27 26 24 19 17 16
76 77 78 79 79 79 79 79 79 77 74 70 67 64 61 59 59 59 60 61 62 64 67 69 70 71 72 74 76 77 77 76 76 74 71 69 68 68 69 69 69 69 68 66 63 62 63 66 70 73 72 71 70 69 68 68 68 67 66 65 65 65 64 61 57 54 53 53 52 51 51 47 41 37 36 35 34 31 28 30 31 30 29 28 25 21 20 18
79 80 81 82 82 82 81 80 77 73 67 62 57 55 53 52 52 53 54 57 59 62 65 68 70 71 73 75 77 78 78 78 78 76 73 71 70 69 70 71 71 71 71 69 66 64 64 68 72 73 72 71 70 69 69 69 69 67 67 67 66 65 65 64 61 58 57 57 56 54 54 51 45 41 38 36 36 33 31 31 32 32 31 29 26 24 23 19
81 82 83 84 83 83 81 76 70 63 57 52 48 46 45 44 45 46 48 51 54 58 62 65 68 71 73 75 77 78 79 79 80 80 77 74 73 71 71 72 73 72 73 72 70 67 67 70 73 74 74 73 71 71 70 70 69 68 68 69 68 67 67 67 65 62 59 58 58 56 55 54 50 44 39 36 36 34 32 33 33 34 33 31 29 27 25 21
82 83 84 84 84 81 76 67 59 53 47 43 41 39 38 38 38 40 42 44 48 52 57 61 65 69 72 75 77 79 80 81 81 82 80 77 75 74 73 73 74 74 74 74 72 71 71 71 73 75 75 74 72 71 71 71 70 69 69 70 69 69 69 69 67 65 62 60 59 58 57 55 53 47 41 37 37 36 35 35 34 34 34 33 32 29 26 23
83 84 85 84 82 75 66 58 51 45 41 37 35 33 32 32 33 34 36 38 42 46 50 55 59 64 69 73 77 79 80 81 83 83 82 80 77 76 74 74 75 76 75 75 74 74 74 73 72 74 75 74 73 72 71 71 71 71 71 71 71 70 71 71 70 68 66 64 61 60 59 55 53 50 44 40 40 40 39 37 35 34 34 34 34 32 29 26
84 85 85 83 76 67 57 50 44 39 36 33 30 28 27 26 27 29 30 33 37 41 45 49 53 59 64 70 74 77 80 82 84 84 84 82 80 78 76 75 76 77 77 76 76 76 77 75 73 74 75 74 72 72 72 72 72 72 72 73 72 72 73 73 72 71 69 66 62 61 61 58 55 54 49 44 43 43 41 38 36 35 34 35 35 33 31 28
86 86 84 78 69 58 50 44 39 35 32 28 26 24 22 22 22 24 26 28 32 36 40 45 49 54 59 64 70 74 78 82 84 85 84 84 82 80 79 78 77 77 78 77 78 79 80 77 74 73 73 73 73 73 74 74 74 75 75 75 74 74 74 74 73 73 71 67 63 61 62 62 59 57 55 49 45 44 42 39 38 36 35 35 36 34 32 30
87 86 82 73 62 52 46 40 35 31 28 25 22 20 18 18 18 20 21 24 27 31 35 40 45 49 54 59 65 71 76 80 83 84 85 85 84 83 82 81 79 79 78 78 80 81 81 79 76 73 71 72 74 76 75 75 76 78 77 76 76 76 75 74 73 74 71 68 66 64 63 63 62 61 59 55 49 45 44 42 39 38 37 37 37 34 32 31
89 86 79 67 56 49 43 37 32 28 24 21 18 16 15 15 16 16 18 20 22 25 29 34 40 45 50 55 61 67 72 77 81 84 85 86 87 86 84 83 81 80 79 79 81 82 80 79 76 72 69 72 75 77 76 76 79 81 79 77 76 76 75 74 74 73 72 71 69 66 64 63 63 62 61 59 54 49 46 44 43 42 40 39 38 35 33 32
90 86 76 63 53 46 40 35 30 25 21 17 15 14 14 14 14 15 16 18 20 22 25 29 34 40 46 52 57 62 68 73 79 83 86 87 88 88 87 85 83 81 79 79 81 81 79 78 76 74 72 72 75 77 77 78 81 81 78 77 76 75 74 73 74 73 73 74 72 69 65 63 64 63 61 60 59 54 51 49 47 45 42 39 38 37 36 34
91 86 73 60 51 45 39 33 27 22 18 16 14 13 13 13 13 14 15 17 18 20 23 26 30 35 42 48 53 58 64 70 76 82 86 88 89 90 89 87 84 82 80 80 81 81 79 78 77 77 76 75 75 77 77 79 81 80 77 77 75 74 73 72 72 72 74 76 74 71 67 64 63 64 62 61 60 58 55 53 51 47 44 42 39 38 35 34
93 85 71 58 50 43 37 31 25 20 17 15 14 12 12 11 12 14 15 17 19 21 23 25 28 32 37 43 50 55 60 65 71 78 83 87 89 90 90 88 85 82 81 81 81 80 79 79 79 79 79 78 76 75 77 79 80 79 77 76 75 73 72 72 72 72 74 76 75 73 71 67 62 61 62 62 60 60 59 56 54 51 47 44 42 39 36 34
93 84 69 56 48 42 36 29 23 19 17 15 13 12 11 11 13 16 18 19 21 23 25 26 29 32 35 39 45 51 56 60 65 72 79 84 87 89 89 88 86 83 82 81 80 80 80 80 80 81 81 80 77 75 77 80 81 80 79 78 76 74 73 73 73 73 75 77 77 75 73 70 64 60 62 63 61 60 61 59 57 55 52 48 45 43 40 37
94 84 68 55 47 41 34 27 22 19 16 14 12 12 12 13 16 19 22 23 24 26 27 29 30 32 34 37 41 47 54 58 62 67 74 80 84 87 87 87 86 85 83 82 80 79 79 80 80 81 81 81 80 78 78 81 83 82 82 80 78 76 75 75 75 75 77 78 77 76 75 74 71 66 64 64 62 60 61 62 60 58 56 53 50 47 45 41
94 84 67 54 46 39 32 26 21 18 15 13 13 13 14 16 19 23 26 27 28 29 30 31 32 33 34 36 39 44 50 57 61 65 70 76 81 84 86 87 86 85 84 83 81 79 79 80 81 81 82 83 83 81 80 81 83 83 82 80 78 78 77 76 76 77 78 78 76 76 77 77 75 72 66 64 64 62 61 62 62 61 59 58 55 51 49 45
94 84 67 54 45 38 31 25 21 18 15 14 13 14 16 20 24 27 29 30 31 31 31 32 34 35 36 37 38 41 47 53 60 65 68 72 77 81 84 86 86 85 85 83 82 81 80 80 82 83 84 84 84 83 81 81 83 83 82 81 81 81 79 77 77 78 78 77 75 75 77 78 76 75 71 67 64 64 62 62 63 63 61 60 58 55 52 48
94 84 67 53 45 38 31 25 21 19 16 15 15 16 20 23 26 29 30 31 30 30 29 31 33 36 38 38 37 40 44 49 56 63 67 70 74 78 82 84 85 85 85 85 83 82 81 81 82 83 84 85 85 84 84 83 83 82 83 84 84 83 81 79 78 77 77 77 76 74 76 78 77 76 76 73 69 67 65 63 65 65 64 61 59 57 54 52
93 84 67 53 44 37 31 26 22 20 18 17 17 19 22 25 28 31 31 30 28 27 26 27 30 34 38 39 38 39 43 47 52 59 65 69 72 76 79 82 84 85 86 85 84 83 82 82 82 83 84 85 87 86 85 84 83 82 83 85 85 84 83 82 80 78 77 77 76 75 74 75 77 77 78 77 76 72 69 67 67 67 65 63 60 58 55 54
92 84 68 53 43 37 31 26 24 22 20 18 18 21 24 26 30 32 31 28 25 22 22 23 27 32 36 39 39 40 42 46 50 55 62 68 71 74 77 80 83 86 86 86 84 83 83 82 82 83 84 85 87 87 87 86 84 82 82 83 84 84 83 83 82 79 78 77 76 75 72 72 75 78 79 79 79 77 73 70 69 68 67 65 62 60 57 55
92 83 68 52 43 36 30 26 24 23 21 20 20 23 26 28 30 32 32 29 24 19 17 18 22 28 33 37 40 41 43 45 48 52 57 63 69 73 76 79 82 85 86 86 85 84 84 83 83 83 84 85 87 88 87 87 86 84 82 81 82 83 83 82 82 80 78 77 76 74 73 72 74 77 79 79 80 80 78 74 71 70 69 68 65 62 59 58
91 83 67 52 41 34 29 26 23 22 21 21 22 24 27 30 32 33 34 31 25 19 15 14 17 22 29 34 39 42 44 45 47 50 53 58 65 71 75 78 81 84 85 85 85 85 85 84 84 83 84 85 87 88 88 88 87 85 82 80 81 82 83 82 82 81 79 77 76 75 74 73 73 75 77 79 80 81 81 78 74 71 69 68 68 66 63 61
91 83 67 51 40 33 29 25 22 21 20 21 23 26 29 32 35 36 35 31 26 21 15 12 13 17 23 30 36 41 44 46 47 49 51 55 61 67 73 77 81 83 84 85 85 85 84 84 84 84 84 85 86 88 89 88 88 86 84 82 81 81 83 83 82 81 80 78 76 76 75 74 74 74 75 77 79 81 82 82 79 75 70 67 66 67 67 65
91 83 68 51 40 33 29 25 22 21 20 21 24 27 30 34 37 39 36 29 24 21 17 12 11 14 19 24 31 38 44 46 47 49 51 54 58 63 69 75 79 82 84 85 85 84 83 84 85 85 85 85 86 88 89 89 88 87 86 83 81 81 82 83 83 82 81 79 77 76 76 75 75 76 76 76 77 79 82 83 82 80 75 70 66 67 68 68
91 83 68 51 39 33 29 25 23 21 21 22 24 28 31 35 39 41 38 31 23 21 18 14 11 12 15 20 26 34 41 45 48 50 53 54 57 61 65 70 76 81 84 85 85 85 85 86 86 86 86 86 86 86 87 88 88 87 86 84 82 81 81 83 84 83 82 80 78 77 77 77 76 77 77 77 76 77 80 82 82 81 79 75 70 68 68 68
91 83 68 51 39 33 29 26 24 21 21 22 25 28 31 34 38 41 40 34 26 20 18 15 12 10 12 17 23 30 37 43 47 51 54 55 56 58 62 66 71 77 81 84 85 86 87 88 87 87 87 86 85 85 86 87 87 87 86 85 83 82 82 82 83 83 83 82 81 79 78 78 77 77 78 77 76 76 77 79 81 82 81 79 74 71 69 69
91 84 68 50 38 32 29 27 24 21 21 22 24 27 30 32 36 40 40 37 30 21 16 14 13 10 10 14 19 25 32 40 45 50 54 57 57 57 59 63 67 72 77 81 84 86 86 87 87 87 86 86 85 85 85 86 87 88 87 86 85 84 83 83 83 83 84 83 82 81 80 79 79 79 78 77 76 75 75 76 79 81 82 81 78 75 72 71
91 85 69 50 38 32 29 27 23 20 21 21 23 26 29 31 34 38 39 36 31 25 17 12 12 11 10 12 16 21 27 35 42 48 53 57 59 58 58 61 65 68 72 77 82 86 86 87 87 86 85 85 84 84 85 86 87 88 88 87 86 86 85 84 84 84 84 83 83 83 82 82 81 80 79 77 76 75 75 75 76 79 82 82 81 78 75 73
90 85 70 51 38 32 29 27 23 20 21 21 23 25 27 30 33 36 38 34 30 26 20 13 10 10 10 11 14 18 23 30 37 44 50 55 59 59 58 59 62 65 68 73 78 83 86 87 88 86 85 85 85 84 85 86 87 88 88 88 88 87 86 86 85 85 84 84 84 84 84 83 82 81 80 78 77 76 76 75 75 77 80 82 83 82 79 76
90 86 72 52 38 32 29 26 22 20 21 21 23 26 27 29 32 35 37 34 29 26 23 17 11 9 10 11 13 16 20 25 32 39 46 52 58 60 59 58 59 61 64 68 73 78 82 86 87 86 85 85 85 85 86 87 87 88 88 89 88 88 88 87 87 86 85 85 85 85 85 85 84 83 81 80 79 78 78 77 77 77 79 81 83 84 82 80
89 87 74 54 39 32 28 25 21 20 20 21 23 26 28 30 32 35 37 35 29 25 23 19 13 10 9 11 12 14 17 21 27 34 41 48 55 60 61 59 59 60 63 66 70 73 77 81 84 85 85 85 86 86 87 88 88 88 88 89 89 89 89 89 88 87 86 86 86 86 86 86 86 85 83 82 82 81 81 80 79 78 78 79 81 83 84 83
88 87 76 56 40 33 28 23 21 20 20 21 23 26 28 30 32 34 36 35 30 25 23 19 15 11 9 9 10 12 15 19 23 29 37 44 51 58 62 62 60 61 63 66 69 71 73 76 79 82 84 85 86 87 87 88 88 89 89 89 89 89 89 89 88 88 87 87 87 87 88 88 87 87 87 86 85 84 84 83 81 81 80 79 79 81 83 84
Wind_Direction
317 314 312 309 307 305 302 299 296 291 286 281 275 271 268 265 262 259 255 251 248 246 245 244 243 241 239 238 236 234 233 232 232 231 230 229 228 227 225 224 224 223 223 224 225 225 225 224 224 224 224 224 223 223 224 225 226 226 225 223 220 217 209 201 195 178 164 178 197 206 207 215 235 237 229 244 244 78 50 39 37 39 39 39 35 32 33 32
314 312 311 309 306 304 301 298 295 292 289 285 281 276 271 268 265 262 260 257 253 249 246 244 244 243 241 239 237 235 233 233 232 230 230 230 229 228 226 225 224 223 223 224 224 225 225 224 224 224 224 224 223 223 223 224 225 226 225 223 222 217 209 202 198 190 179 181 187 197 208 214 230 235 227 237 235 153 41 25 30 31 33 38 33 29 28 25
312 311 310 309 307 305 302 300 296 293 290 286 283 280 276 272 267 264 262 260 258 254 250 246 243 242 242 241 239 236 234 233 232 231 230 230 230 229 226 225 225 223 222 223 224 224 225 224 224 224 223 223 223 222 222 223 224 225 225 223 222 218 211 204 203 197 181 179 185 194 207 211 224 232 219 230 235 217 15 357 359 359 20 32 29 29 25 21
311 309 307 305 304 302 300 298 296 293 290 288 285 281 278 275 271 267 263 260 259 257 255 250 246 242 241 241 240 238 235 234 232 231 230 229 230 230 228 226 226 224 222 223 223 224 224 224 224 224 223 223 223 222 221 222 223 224 224 224 222 218 213 207 206 201 185 182 186 195 206 207 217 224 214 230 240 238 295 308 311 320 2 18 18 27 25 20
311 308 305 302 300 297 295 293 291 289 287 286 284 282 280 277 274 271 267 263 259 258 256 254 250 245 241 240 240 239 237 235 233 232 231 229 230 230 228 228 228 226 223 223 223 223 224 224 224 224 223 223 223 223 221 221 221 222 223 223 222 219 214 209 208 203 193 190 190 198 204 201 208 212 218 241 245 240 249 277 292 307 350 1 2 19 25 20
310 308 306 303 300 297 293 290 287 285 283 282 281 280 279 278 276 273 270 265 261 258 256 254 253 249 245 241 239 238 237 236 234 232 231 230 229 230 229 228 228 227 224 223 223 223 223 223 224 224 223 223 223 223 221 220 220 221 222 223 222 220 214 210 209 206 199 193 192 202 203 196 197 203 223 239 242 235 234 268 285 305 338 346 347 6 22 21
309 308 307 305 302 299 296 292 288 285 282 280 277 276 275 275 274 273 272 268 264 260 257 255 253 251 248 245 240 238 237 235 234 233 232 230 229 229 229 228 228 227 225 224 223 223 223 223 224 224 224 223 222 222 221 220 219 220 221 222 222 220 215 210 210 208 203 197 193 204 208 194 185 197 219 234 237 229 232 265 273 299 324 333 338 354 16 17
308 307 307 306 304 302 300 296 293 288 285 282 279 276 274 271 270 270 270 269 266 262 258 256 254 251 249 247 244 240 236 235 234 233 232 230 229 229 228 228 228 227 226 225 224 223 223 222 223 223 224 224 223 222 221 219 218 219 220 220 221 220 216 210 209 207 204 204 197 204 213 197 183 193 208 227 233 229 242 260 263 286 308 319 327 343 9 13
306 307 307 307 306 304 302 299 296 292 288 286 283 280 277 273 270 267 266 266 266 265 261 257 255 252 249 247 246 243 238 235 233 232 232 230 229 229 228 228 228 227 226 226 225 224 222 221 222 223 223 223 223 222 221 219 217 217 218 219 220 220 217 211 208 206 204 207 200 200 212 200 188 191 194 211 226 232 245 253 254 271 295 310 321 333 360 9
306 307 306 306 305 303 301 298 295 292 289 286 284 282 279 276 273 269 265 263 263 263 262 259 255 253 250 247 245 244 241 237 234 232 231 230 229 228 227 228 228 227 226 226 225 224 222 222 222 222 222 223 223 222 220 219 217 216 216 217 218 219 219 213 209 207 205 208 204 197 204 201 195 197 196 202 216 228 240 246 245 258 284 300 316 323 353 7
306 306 305 304 303 302 299 296 292 289 286 284 282 281 279 277 274 271 267 263 260 260 260 260 257 253 251 248 245 243 242 240 236 232 231 230 229 228 227 227 227 226 226 225 224 223 223 222 222 222 221 222 222 222 220 218 217 216 214 214 216 218 219 213 210 209 207 210 207 198 200 202 199 206 211 211 216 224 234 240 237 248 270 285 309 315 351 5
305 305 304 304 303 302 299 296 292 288 285 283 281 279 277 275 273 271 268 264 261 258 257 257 257 255 251 249 246 243 242 241 238 234 230 229 228 227 226 226 226 226 226 225 223 223 223 223 222 221 221 221 222 222 220 218 217 215 214 213 213 216 217 214 210 208 207 211 209 201 199 202 203 210 217 220 223 225 229 234 231 239 251 268 297 303 345 357
305 304 304 304 303 301 299 295 292 288 286 283 281 279 276 274 271 269 267 264 261 258 255 254 255 254 252 249 246 243 241 239 238 235 231 229 228 227 226 225 225 226 226 224 223 223 223 223 223 222 221 221 221 221 220 218 217 215 213 211 211 213 215 214 211 206 206 210 209 204 199 200 205 210 213 221 226 224 226 230 229 231 236 258 277 284 343 352
306 305 304 304 303 301 298 295 292 289 286 283 281 278 276 273 270 268 265 263 261 258 254 252 251 252 252 249 246 243 240 238 238 237 234 230 228 228 227 226 225 225 226 225 223 222 222 223 223 222 222 220 220 220 220 218 217 215 213 211 210 210 211 213 213 208 205 208 207 204 201 200 203 206 210 219 222 220 224 229 227 225 231 253 264 271 327 339
307 306 306 305 303 301 298 295 292 289 286 283 280 278 275 272 270 267 264 261 259 257 254 251 249 248 249 248 245 243 240 238 237 237 236 233 230 229 228 226 225 225 225 225 224 222 222 222 222 222 221 220 219 219 219 218 217 215 213 211 210 209 208 211 215 212 208 207 205 202 201 202 203 202 207 214 216 217 223 227 225 224 230 243 254 264 286 307
309 309 308 307 305 302 299 296 293 290 287 284 281 278 275 272 270 267 264 261 258 255 253 250 247 245 245 245 245 243 240 238 237 236 236 234 231 228 228 227 225 224 224 224 225 223 222 222 222 222 221 220 219 218 219 218 217 216 213 211 210 208 206 207 211 214 211 208 206 204 203 204 202 200 202 208 212 218 223 223 223 227 228 231 247 259 266 276
312 312 310 308 306 303 301 297 294 291 287 285 282 279 276 273 270 267 264 261 257 254 251 248 246 243 242 243 244 243 241 238 236 235 234 233 231 228 227 226 225 223 222 222 223 223 222 222 222 222 222 220 219 218 218 218 217 216 213 211 209 209 207 205 205 209 211 208 206 206 206 205 202 201 202 202 206 216 222 221 224 232 230 228 242 253 257 262
315 314 312 310 307 305 302 299 295 292 289 286 284 281 278 274 271 267 264 260 257 253 250 247 244 242 240 240 241 240 239 237 234 233 232 232 230 228 226 225 225 223 221 220 221 222 222 222 221 222 222 221 220 219 218 217 216 215 213 211 209 208 208 206 204 205 206 207 207 206 206 206 205 206 206 202 202 210 219 222 229 236 232 229 238 247 253 257
318 316 313 311 308 306 302 299 297 294 292 289 286 283 279 275 271 267 263 259 255 252 249 246 243 240 239 238 237 237 237 235 233 231 230 230 229 227 225 224 224 223 221 220 220 220 221 221 221 221 222 221 219 219 218 217 216 215 214 212 211 210 209 208 206 205 204 204 207 208 207 206 206 209 210 206 205 209 214 220 232 238 234 232 236 242 249 252
319 317 314 312 310 307 304 301 299 297 294 291 288 285 280 276 271 266 261 257 253 250 247 244 242 239 237 236 235 234 234 234 233 231 229 228 228 227 225 223 222 222 220 220 219 219 219 220 220 220 220 220 219 218 218 217 216 215 214 213 212 211 211 209 208 207 206 206 209 210 211 209 207 208 210 210 208 209 209 209 222 235 236 235 234 236 241 243
320 318 317 315 312 309 307 305 302 300 297 294 290 285 281 276 270 265 259 255 250 247 244 242 240 238 236 234 233 233 232 232 232 230 228 227 227 227 226 223 221 221 220 219 218 218 218 219 219 219 219 219 219 219 218 216 216 215 214 213 213 212 211 210 209 209 209 209 210 211 213 211 207 207 209 212 210 208 207 205 213 226 232 233 232 231 233 235
322 321 319 317 314 312 310 308 306 303 299 295 290 285 280 274 268 262 257 252 247 244 241 239 237 235 234 233 232 231 231 230 230 230 228 226 226 225 225 223 221 220 219 218 217 216 216 218 219 219 219 219 219 220 218 217 216 215 215 214 214 213 212 211 209 208 207 208 209 210 212 209 207 208 210 212 212 210 208 206 210 219 227 232 234 232 231 234
324 322 320 318 316 315 313 311 308 304 300 295 290 284 278 272 266 260 254 249 245 241 238 236 234 233 232 231 230 230 229 229 229 229 227 226 224 224 223 222 221 219 218 218 217 216 216 217 218 218 218 218 218 219 218 218 216 215 215 215 214 213 213 212 210 208 207 207 206 207 210 207 205 210 212 214 215 215 213 210 211 216 223 229 234 233 229 234
325 323 322 320 318 317 315 312 309 305 300 295 289 283 277 270 263 257 252 247 242 239 236 234 232 231 229 229 228 228 227 226 226 226 226 225 224 223 222 221 220 219 217 217 216 216 217 217 216 216 217 217 217 218 218 218 216 215 215 215 214 214 213 213 211 210 208 208 206 206 208 207 204 207 211 211 214 216 214 213 214 217 220 224 229 228 226 235
326 325 324 322 321 319 317 314 309 306 301 296 289 283 276 269 262 256 250 245 241 237 235 232 230 228 227 227 226 226 225 225 224 224 224 223 222 222 222 221 220 218 217 216 216 217 218 217 215 215 216 216 215 216 217 218 217 215 215 215 214 214 214 213 212 211 210 208 207 205 207 207 203 205 208 206 208 213 213 213 215 216 219 223 225 224 226 236
329 328 326 325 324 321 319 315 312 308 303 297 291 284 277 270 263 256 250 244 240 237 234 231 228 227 225 224 224 223 223 223 223 223 223 222 222 221 221 220 220 218 217 216 216 217 219 217 215 215 215 215 215 215 216 218 218 216 215 214 214 215 214 213 213 213 211 209 207 206 208 207 204 206 208 206 208 213 214 213 214 215 219 223 224 224 225 233
333 331 330 328 326 324 321 318 315 311 306 300 294 287 279 271 263 257 250 244 239 235 233 230 227 225 224 222 222 221 220 220 220 221 221 221 220 220 220 220 219 218 217 216 215 217 219 217 216 215 214 214 215 215 216 217 218 217 216 214 214 215 215 213 213 213 213 211 208 208 209 209 207 208 209 208 208 213 214 212 211 213 218 222 225 224 223 226
336 334 333 331 329 326 325 323 319 314 309 303 296 288 280 271 262 256 249 243 238 234 232 229 227 224 222 221 220 219 218 218 218 218 219 219 219 219 219 219 218 217 216 216 215 217 217 217 216 215 214 213 214 215 215 215 217 218 216 214 214 215 215 213 214 214 213 212 209 209 210 210 210 211 210 208 205 207 210 209 209 210 213 220 225 224 222 223
339 338 336 334 331 330 329 327 323 318 311 304 296 289 281 273 264 256 249 242 238 234 231 230 227 224 222 220 219 218 217 216 216 216 217 217 217 217 217 218 218 217 216 216 216 217 216 216 216 215 214 213 213 214 214 214 216 217 216 214 213 214 214 214 214 214 213 213 211 209 210 211 212 212 211 209 206 206 208 210 212 212 212 217 223 224 222 222
342 341 339 336 334 334 333 331 326 319 312 306 300 293 285 276 268 260 254 248 241 237 233 230 228 226 223 221 219 218 216 215 214 214 214 214 215 216 216 217 217 217 216 216 217 217 217 217 216 216 215 215 214 214 214 214 216 217 216 215 214 213 213 214 215 214 213 214 213 211 210 211 213 214 213 211 210 210 211 213 215 216 215 218 222 223 223 222
345 344 341 339 338 338 336 332 327 321 315 310 305 297 287 279 270 262 257 253 249 243 237 233 230 227 224 222 220 218 217 215 214 213 212 213 213 214 215 216 216 216 216 216 217 217 216 216 216 216 216 216 215 214 214 215 217 217 216 216 215 213 213 215 216 214 214 215 214 212 211 211 213 214 214 213 212 214 216 216 217 218 218 220 221 221 223 223
347 346 344 341 340 340 337 333 328 324 320 313 305 296 287 279 272 265 259 257 253 248 243 238 233 230 226 223 221 219 218 216 214 213 212 212 212 212 214 215 215 216 216 217 217 216 215 215 216 216 216 217 216 214 214 216 217 217 217 217 217 214 213 215 216 215 216 216 214 213 213 212 213 214 215 214 213 215 216 217 218 218 218 218 217 217 220 223
349 348 345 343 342 341 338 334 331 328 323 314 306 297 289 283 277 271 264 260 256 251 247 243 238 233 228 225 222 219 219 218 216 214 213 212 212 213 213 213 214 215 216 217 216 215 215 215 215 216 217 217 216 215 215 216 217 217 217 217 218 216 214 214 216 217 217 217 215 214 214 213 212 214 216 215 214 215 215 216 217 217 217 217 215 214 215 219
351 349 346 344 343 341 338 335 333 329 322 313 305 297 290 283 277 273 267 262 259 256 252 248 244 238 231 227 223 220 218 218 218 216 214 213 212 213 213 213 213 214 216 217 217 215 215 215 215 216 217 217 216 215 215 216 216 215 215 215 216 217 215 214 215 217 218 217 215 214 214 214 213 212 215 215 215 216 215 215 215 215 216 217 217 215 213 213
352 350 347 344 343 341 338 335 334 329 320 309 300 295 289 282 279 278 274 269 265 261 257 253 249 244 237 230 225 221 218 217 217 217 216 214 213 213 213 213 213 214 215 216 216 216 215 215 215 216 217 217 217 216 216 216 216 215 215 214 214 216 216 214 214 216 218 217 215 214 215 215 214 212 213 213 214 216 216 215 215 216 217 217 217 216 214 212
352 351 348 345 344 342 337 334 332 325 317 307 298 296 296 294 292 289 285 281 274 267 262 256 252 248 242 235 228 223 220 217 216 216 216 216 214 213 213 213 214 214 215 215 215 215 215 215 215 216 216 217 217 216 216 217 216 215 214 214 214 215 216 216 214 216 218 216 214 215 215 216 215 213 213 213 214 216 217 216 216 217 218 218 219 218 216 215
353 351 348 345 344 341 337 333 328 322 314 305 300 304 306 303 299 295 292 288 281 272 264 257 251 248 244 238 231 225 222 218 216 215 215 215 215 214 214 214 214 214 214 215 215 215 215 215 215 216 216 217 217 217 217 218 217 215 213 213 214 214 215 216 215 216 217 216 214 215 216 217 216 215 215 214 215 216 217 217 217 218 220 220 221 221 220 219
353 351 349 346 344 341 337 332 326 321 314 307 310 314 310 305 303 303 301 296 288 278 267 257 249 244 241 238 232 226 223 220 217 216 215 214 214 214 214 214 214 214 214 215 215 216 215 215 215 216 216 217 217 217 217 218 218 216 214 213 213 213 214 215 216 216 216 216 215 216 217 217 217 216 217 216 216 217 217 218 218 219 220 221 222 222 222 221
353 351 349 346 344 341 336 331 326 322 318 317 320 318 312 313 316 315 311 304 295 283 271 258 246 239 236 235 231 225 222 220 218 216 214 214 214 214 214 214 214 214 214 214 215 216 216 216 216 216 217 217 217 217 217 218 219 217 215 214 214 213 213 214 215 215 215 215 215 216 218 218 217 217 217 217 218 219 219 219 219 219 220 221 222 223 222 222
353 351 349 346 344 341 335 331 327 324 322 321 321 318 319 324 326 324 320 315 305 291 273 257 245 236 232 230 228 224 221 219 218 216 215 213 213 213 213 214 214 214 214 214 215 216 217 217 217 217 217 217 217 217 217 218 219 218 216 215 215 214 214 215 215 215 215 215 215 216 218 219 218 217 217 217 218 219 220 221 221 220 221 221 222 223 223 222
353 351 349 346 344 340 334 331 327 323 321 321 321 323 327 329 331 334 333 326 317 303 281 259 243 234 229 226 224 222 220 218 216 216 215 214 213 213 213 213 213 214 214 214 215 216 217 219 219 219 218 218 218 218 217 218 219 218 217 216 216 215 215 215 216 216 215 215 216 216 217 219 219 219 219 218 218 219 220 222 222 221 222 223 223 223 223 223
353 351 349 346 344 340 334 331 328 323 320 321 324 328 331 332 337 343 342 334 326 314 292 266 246 234 228 224 221 220 218 216 215 214 214 213 213 213 213 212 212 213 214 214 214 216 217 219 220 220 220 219 219 218 218 218 219 219 217 216 216 216 215 215 216 216 216 216 216 216 217 218 219 220 220 219 219 219 220 222 222 221 222 223 224 224 224 224
353 351 349 347 344 340 335 332 329 323 320 324 328 330 333 338 343 347 347 340 331 321 306 281 254 235 227 223 219 218 217 215 214 213 212 212 212 213 213 213 212 212 213 214 214 215 217 219 220 221 221 221 220 219 218 218 219 219 218 216 216 216 216 215 215 216 217 217 216 217 218 218 219 220 221 221 220 219 220 221 222 222 222 223 224 226 226 225
353 351 349 347 344 340 337 334 331 325 323 327 330 332 337 343 346 348 348 345 336 327 318 301 272 244 228 223 219 217 216 215 212 211 211 211 211 212 212 213 213 212 212 212 213 214 216 218 220 221 221 222 221 220 219 219 219 220 219 217 216 216 216 216 215 215 216 217 217 218 218 218 219 220 221 222 221 220 220 221 222 222 222 223 224 225 226 226
353 351 349 347 344 340 337 335 333 330 326 328 332 336 341 346 347 348 348 349 346 335 324 313 293 261 235 223 220 217 215 214 212 211 211 211 211 211 211 211 213 213 212 212 212 213 214 216 218 219 221 221 222 222 221 220 220 220 220 218 217 217 217 217 216 215 216 216 216 218 219 219 220 221 222 222 222 221 220 221 222 222 223 223 224 224 225 225
354 352 349 347 344 339 337 334 335 333 327 329 335 339 343 347 348 349 348 349 351 344 330 320 308 278 246 228 221 218 215 214 212 211 211 211 211 211 211 210 212 213 213 213 212 212 214 216 217 218 219 220 221 222 222 221 221 221 221 220 218 218 218 217 217 216 216 216 216 217 219 219 220 221 222 223 223 223 222 221 222 222 222 223 223 223 225 225
354 352 349 347 343 339 335 334 337 333 325 329 337 339 343 348 349 351 350 349 348 348 339 328 318 296 259 236 226 221 217 215 212 210 210 211 211 211 211 211 211 212 213 213 212 212 213 215 217 218 219 220 220 221 221 221 221 221 221 221 219 219 218 218 217 217 216 216 217 217 218 219 220 221 222 223 224 225 224 223 222 223 223 222 222 223 224 225
354 352 350 347 343 338 334 335 338 330 323 330 338 339 342 348 351 353 353 350 345 345 346 338 325 308 276 245 231 224 219 217 215 212 210 211 211 211 211 212 211 211 211 213 213 213 212 214 216 217 218 219 219 220 221 221 221 221 221 221 220 219 219 219 218 217 217 217 217 218 219 219 220 221 222 222 224 225 226 224 223 223 223 222 222 223 224 225
354 353 350 347 343 338 333 335 337 328 323 329 335 338 342 347 352 354 354 351 346 344 345 344 334 317 291 259 237 227 221 218 217 214 211 210 211 211 212 213 212 212 211 212 214 214 213 213 214 215 217 218 218 218 220 221 221 221 221 221 221 220 219 219 219 218 217 217 217 218 219 220 220 221 222 222 223 224 226 226 225 224 223 222 222 222 223 224
354 353 351 347 343 337 334 335 334 327 325 329 333 337 342 347 351 355 355 353 349 345 343 343 340 323 299 274 247 230 222 219 218 216 213 211 211 211 212 213 213 213 213 213 215 216 215 215 214 213 214 217 217 217 218 219 220 221 221 221 221 221 220 220 220 219 218 218 218 218 220 220 220 221 221 222 222 223 225 226 226 225 224 222 222 222 223 223
354 354 351 347 343 338 335 336 333 326 325 329 332 337 342 347 351 354 356 354 351 347 344 342 341 331 306 285 261 238 225 219 218 218 215 213 211 210 211 211 212 212 214 214 215 217 217 217 217 214 213 215 216 216 217 219 219 220 221 221 221 221 221 221 220 220 219 219 219 219 220 221 221 221 221 222 222 223 223 225 225 225 225 224 223 223 223 224
354 354 352 348 343 339 338 336 331 325 325 328 331 336 341 345 350 353 355 354 351 347 345 344 343 337 316 294 273 250 232 221 217 218 218 215 213 211 211 211 211 211 212 213 215 217 217 217 218 217 215 214 215 216 217 218 219 220 221 221 221 222 222 222 221 221 221 220 220 220 220 221 221 221 221 222 222 222 223 224 225 226 226 225 224 224 224 224